Погода Нижне-Усинское

Погода Нижне-Усинское : погода сейчас, прогноз погоды и архив. Всё, что Вы хотите узнать о погоде Нижне-Усинское!

Поиск расширенной информации на нашем сайте:

Другие новости

Новости СМИ2

Главная страница сайта

Новости сайта

02.10.2013

Напоминаем, что на нашем новом сайте вы можете получить высокодетализированные прогнозы погоды по пунктам России, СНГ и мира (включающие важные для авиации метеовеличины, такие как направление и скорость ветра, видимость, явления погоды, количество и форма облачности, нижняя и верхняя граница облачности), а также ознакомиться с разнообразными материалами по авиационной метеорологии и подборкой полезных ссылок на эту тему.

Сайт Метеоцентр.Азия посвящён разработке технологий оптимизации авиаметеорологического обслуживания, включая проектирование и перспективное создание нескольких автоматизированных авиаметеорологических систем:
- система выпуска высокодетальных прогностических карт явлений погоды для нижнего воздушного пространства по России и ближнему зарубежью;
- система верификации прогнозов TAF (выпускаемых синоптиками официальных АМСГ РФ и ближнего зарубежья) и AUTOTAF (выпускаемых сайтом Метеоцентр.Азия) - выявление ошибок, онлайн-сопоставление с фактической погодой METAR, автоматическое внесение коррективов в прогнозы при резком отклонении фактической погоды от прогноза, подсчёт оправдываемости прогнозов по элементам и в целом;
- система обработки, анализа и отображения авиаметеорологической информации для применения провайдерами метеорологической информации.


Погода Нижне-Усинское - сегодня

Время (UTC), дата Ветер
(°,м/с) 
Видим.   Явления Облачность Т
(°С)
Тd
(°С)
f(%) Тe
(°С)
Pmin
(гПа)
dP
(гПа)
Po
(мм)
O2
(г/м3)
Тmin Tmax R s Состояние
почвы
15 22.04.17 тихо ()   н/о    ясно 
+14 -6.2 24 +14  1013.4  0.7  703  270           
18 22.04.17 тихо ()   н/о    ясно 
+1.5 -2.9 72 +2  1017.4  0.4  703  282           
21 22.04.17 тихо ()   н/о    ясно 
-4 -7 80 -4  1020.2  704  289           
00 23.04.17 тихо ()   20000 м    6/6 1000 м 
[Sc]
-3.5 -5.3 87 -4  1020.3  0.2  704  288  -4.5         
03 23.04.17 тихо ()   20000 м    9/6 1000 м средняя, верхняя 
[Sc|Ac trans|Ci fib]
+7.8 -3.2 46 +8  1016.6  -0.3  704  276           
06 23.04.17 тихо ()   20000 м    9/6 1000 м верхняя 
[Sc|Ci fib]
+17.2 -3.8 24 +17  1013.3  -0.6  704  267           
09 23.04.17 310 (СЗ) 5{11}  20000 м    9/8 1000 м кучево-дожд., средняя, верхняя 
[Cb cap|Ac trans|Ci sp]
+18.1 +1.7 33 +18  1011.6  -1.3  703  265           
12 23.04.17 320 (СЗ) 7{14}  20000 м    9/8 1000 м кучево-дожд., средняя, верхняя 
[Cb cap|Ac trans|Ci sp]
+12.4 +4 56 +11  1016.8  3.5  705  271    +20.3       
15 23.04.17 300 (СЗ) 2{11}  н/о    10/0 кучево-дожд. 
[Cb cap]
+9.8 +3.3 64 +10  1020.6  2.8  707  274           
18 23.04.17 080 (В) н/о    3/3 1000 м 
[Sc]
+4.9 +3.2 89 +6  1022.9  0.8  708  280           
21 23.04.17 тихо ()   н/о    9/3 1000 м верхняя 
[Sc|Ci sp]
+2.6 +1.8 94 +3  1024  0.4  708  282           
00 24.04.17 тихо ()   20000 м    9/4 1000 м средняя, верхняя 
[Sc|Ac trans|Ci sp]
+0.4 -0.2 96 1025.6  0.8  709  285  -0.6         
03 24.04.17 тихо ()   20000 м    3/3 1000 м 
[Sc]
+10.8 +3.8 62 +11  1021.4  -1  708  274           
06 24.04.17 200 (Ю) 20000 м    3/3 1000 м 
[Sc]
+17.3 -4.1 23 +19  1017.5  -2.1  706  268           
09 24.04.17 340 (С) 20000 м    4/4 1000 м 
[Sc]
+19.7 -4.6 19 +21  1014.7  -2  705  265           
12 24.04.17 тихо ()   20000 м    3/3 1000 м 
[Sc]
+19.4 -4.9 19 +19  1014.1  -0.6  704  265    +21       
15 24.04.17 тихо ()   н/о    6/6 1000 м 
[Sc]
+10.5 -3.4 37 +11  1018.4  1.7  706  274           
18 24.04.17 тихо ()   н/о    ясно 
+5.5 -1.2 62 +6  1020.6  0.8  706  279           
21 24.04.17 тихо ()   н/о    3/3 1000 м 
[Sc]
-0.2 -2.2 86 -0  1023  0.6  707  285           
00 25.04.17 тихо ()   20000 м    9/5 1000 м средняя, верхняя 
[Sc|Ac trans|Ci sp]
+3.2 +0.3 81 +3  1024  1.9  708  282  -0.9         
03 25.04.17 тихо ()   20000 м    9/6 1000 м кучево-дожд., средняя, верхняя 
[Cb cap|Ac trans|Ci sp]
+10.8 +0.3 48 +11  1021.9  708  274           
06 25.04.17 320 (СЗ) 20000 м    9/5 1000 м средняя, верхняя 
[Sc|Ac trans|Ci fib]
+15.8 +4.3 46 +17  1021.1  0.7  709  269           
09 25.04.17 310 (СЗ) 20000 м    6/6 1000 м 
[Sc]
+17.5 +3 38 +18  1020.7  709  268           
12 25.04.17 230 (ЮЗ) 20000 м    3/3 1000 м 
[Sc]
+14.2 +3.1 47 +15  1023.8  2.1  710  272    +17.8       
15 25.04.17 тихо ()   н/о    ясно 
+8.8 +2.9 66 +9  1028.1  3.1  713  278           
Время (UTC), дата Ветер
(°,м/с) 
Видим.   Явления Облачность Т
(°С)
Тd
(°С)
f(%) Тe
(°С)
Pmin
(гПа)
dP
(гПа)
Po
(мм)
O2
(г/м3)
Тmin Tmax R s Состояние
почвы

Для получения пояснительной информации подведите курсор к названию столбца.

ПОГОДА Нижне-Усинское - архив

Всё, что Вы хотите узнать о погоде Нижне-Усинское - удобно и подробно!

Выберите нужную дату (начиная с 1 января 2015* года) и нажмите кнопку "Найти".
Будут отображены архивные сводки погоды по пункту Нижне-Усинское, начиная с указанной даты.


Отображать данные в формате CSV (для использования в таблицах Excel)


Внимание! Наш архив погоды предназначен исключительно для личного некоммерческого использования в познавательных целях. Если Вам необходимы официальные справки о состоянии погоды (для производственных, юридических, коммерческих и т.п. целей), обращайтесь в органы Росгидромета.

*Примечание: данная дата относится к архиву по метеостанциям СССР (Россия, СНГ, Балтия).
Архив по метеостанциям Зарубежной Европы и Азии (кроме Китая) хранится 10 дней, по другим регионам земного шара (Китай, Африка, Америка, Австралия, Океания) - 1 день.

Нижне-Усинское - район местоположения метеостанции


Название, широта, долгота, высота метеостанции:
Нижне-Усинское 52.3°ш. 93°д. 660 м над ур. моря [Российская Федерация]

Дополнительная информация

В oтличие oт бoльшинства пoгoдных сайтoв мы публикуем пoдрoбную метеoинфoрмацию в детальнoм прoфессиoнальнoм фoрмате.

Характеристики температуры и влажнoсти вoздуха измеряются на высoте 2 м в тени вдали oт зданий и деревьев.
Скoрoсть ветра измеряется на высoте 10 м (на урoвне рoста челoвека скoрoсть ветра ниже в 1.5-2 раза). Если метеoстанция нахoдится в гoрoде или в лесу, тo скoрoсть ветра занижена на 2-4 м/с пo сравнению с oткрытым местoм. Скoрoсть ветра над акватoриями крупных рек и oзёр, а также на вершинах хoлмoв на 2-5 м/с выше, чем в oбычных услoвиях.
Атмoсфернoе давление в разных тoчках местнoсти мoжет значительнo oтличаться oт давления на метеoстанции, в зависимoсти oт услoвий рельефа (при пoдъёме на 10 м давление пoнижается примернo на 1 мм рт.ст.).